"Sample Date","Sample Time","Sample Value","Units","Flow Rate","Sample Interval","Number Channels","Micron Size 0","Counts/Channel 0","Micron Size 1","Counts/Channel 1","Micron Size 2","Counts/Channel 2","Micron Size 3","Counts/Channel 3","Micron Size 4","Counts/Channel 4","Micron Size 5","Counts/Channel 5","Micron Size 6","Counts/Channel 6","Micron Size 7","Counts/Channel 7","Micron Size 8","Counts/Channel 8","Micron Size 9","Counts/Channel 9","Micron Size 10","Counts/Channel 10","Micron Size 11","Counts/Channel 11","Micron Size 12","Counts/Channel 12","Micron Size 13","Counts/Channel 13","Micron Size 14","Counts/Channel 14","Micron Size 15","Counts/Channel 15","Micron Size 16","Counts/Channel 16","Micron Size 17","Counts/Channel 17","Micron Size 18","Counts/Channel 18","Micron Size 19","Counts/Channel 19","Micron Size 20","Counts/Channel 20","Micron Size 21","Counts/Channel 21","Micron Size 22","Counts/Channel 22","Micron Size 23","Counts/Channel 23","Micron Size 24","Counts/Channel 24","Micron Size 25","Counts/Channel 25","Micron Size 26","Counts/Channel 26","Micron Size 27","Counts/Channel 27","Micron Size 28","Counts/Channel 28","Micron Size 29","Counts/Channel 29","Micron Size 30","Counts/Channel 30","Micron Size 31","Counts/Channel 31"
"03/08/08","14:00:02",203218.000,"cc",28349.867,6.00,6,0.100,177385.000,0.200,24572.000,0.300,848.000,0.500,299.000,1.000,114.000,5.000,0
"03/08/08","14:00:08",203682.000,"cc",28311.768,6.00,6,0.100,178506.000,0.200,23888.000,0.300,874.000,0.500,304.000,1.000,110.000,5.000,0
"03/08/08","14:00:14",213714.000,"cc",28319.695,6.00,6,0.100,186757.000,0.200,25214.000,0.300,1274.000,0.500,350.000,1.000,119.000,5.000,0
"03/08/08","14:00:20",258362.000,"cc",28340.688,6.00,6,0.100,224404.000,0.200,31746.000,0.300,1709.000,0.500,386.000,1.000,117.000,5.000,0
"03/08/08","14:00:26",333369.000,"cc",28289.824,6.00,6,0.100,284838.000,0.200,44933.000,0.300,2945.000,0.500,524.000,1.000,129.000,5.000,0
"03/08/08","14:00:32",359687.000,"cc",28336.465,6.00,6,0.100,305070.000,0.200,49296.000,0.300,4340.000,0.500,819.000,1.000,162.000,5.000,0
"03/08/08","14:00:38",237223.000,"cc",28292.520,6.00,6,0.100,203368.000,0.200,30231.000,0.300,2839.000,0.500,647.000,1.000,138.000,5.000,0
"03/08/08","14:00:44",260717.000,"cc",28282.701,6.00,6,0.100,222248.000,0.200,33608.000,0.300,3882.000,0.500,837.000,1.000,142.000,5.000,0
"03/08/08","14:00:50",140041.000,"cc",28357.244,6.00,6,0.100,122063.000,0.200,15535.000,0.300,1859.000,0.500,485.000,1.000,99.000,5.000,0
"03/08/08","14:00:56",125422.000,"cc",28350.570,6.00,6,0.100,109513.000,0.200,13782.000,0.300,1547.000,0.500,462.000,1.000,118.000,5.000,0
"03/08/08","14:01:02",241008.000,"cc",28305.145,6.00,6,0.100,206449.000,0.200,29848.000,0.300,3746.000,0.500,822.000,1.000,143.000,5.000,0
"03/08/08","14:01:08",282770.000,"cc",28318.387,6.00,6,0.100,240772.000,0.200,36198.000,0.300,4703.000,0.500,945.000,1.000,152.000,5.000,0
"03/08/08","14:01:14",214124.000,"cc",28314.440,6.00,6,0.100,185443.000,0.200,24745.000,0.300,3120.000,0.500,691.000,1.000,125.000,5.000,0
"03/08/08","14:01:20",151176.000,"cc",28337.713,6.00,6,0.100,132498.000,0.200,16171.000,0.300,1897.000,0.500,480.000,1.000,130.000,5.000,0
"03/08/08","14:01:26",188418.000,"cc",28351.754,6.00,6,0.100,164902.000,0.200,20490.000,0.300,2314.000,0.500,579.000,1.000,133.000,5.000,0
"03/08/08","14:01:32",95935.000,"cc",28274.490,6.00,6,0.100,84527.000,0.200,9872.000,0.300,1057.000,0.500,386.000,1.000,93.000,5.000,0
"03/08/08","14:01:38",84465.000,"cc",28294.684,6.00,6,0.100,74292.000,0.200,8741.000,0.300,957.000,0.500,365.000,1.000,110.000,5.000,0
"03/08/08","14:01:44",115604.000,"cc",28321.453,6.00,6,0.100,101608.000,0.200,12398.000,0.300,1113.000,0.500,376.000,1.000,109.000,5.000,0
"03/08/08","14:01:50",135054.000,"cc",28300.826,6.00,6,0.100,118864.000,0.200,14388.000,0.300,1308.000,0.500,385.000,1.000,109.000,5.000,0
"03/08/08","14:01:56",91108.000,"cc",28345.772,6.00,6,0.100,80880.000,0.200,8965.000,0.300,830.000,0.500,326.000,1.000,107.000,5.000,0
"03/08/08","14:02:02",146436.000,"cc",28289.225,6.00,6,0.100,130201.000,0.200,14499.000,0.300,1218.000,0.500,392.000,1.000,126.000,5.000,0
"03/08/08","14:02:08",156345.000,"cc",28331.572,6.00,6,0.100,138620.000,0.200,15785.000,0.300,1371.000,0.500,441.000,1.000,128.000,5.000,0
"03/08/08","14:02:14",73791.000,"cc",28345.604,6.00,6,0.100,65397.000,0.200,7305.000,0.300,674.000,0.500,316.000,1.000,99.000,5.000,0
"03/08/08","14:02:20",44538.000,"cc",28346.580,6.00,6,0.100,39142.000,0.200,4576.000,0.300,443.000,0.500,282.000,1.000,95.000,5.000,0
"03/08/08","14:02:26",40412.000,"cc",28345.615,6.00,6,0.100,35522.000,0.200,4106.000,0.300,415.000,0.500,271.000,1.000,98.000,5.000,0
"03/08/08","14:02:32",70680.000,"cc",28253.070,6.00,6,0.100,62731.000,0.200,6917.000,0.300,627.000,0.500,268.000,1.000,136.000,5.000,1.000
"03/08/08","14:02:38",73181.000,"cc",28318.973,6.00,6,0.100,64952.000,0.200,7143.000,0.300,664.000,0.500,303.000,1.000,119.000,5.000,0
"03/08/08","14:02:44",52269.000,"cc",28261.816,6.00,6,0.100,46201.000,0.200,5201.000,0.300,468.000,0.500,284.000,1.000,115.000,5.000,0
"03/08/08","14:02:50",122950.000,"cc",28397.740,6.00,6,0.100,109733.000,0.200,11875.000,0.300,916.000,0.500,304.000,1.000,122.000,5.000,0
"03/08/08","14:02:56",122578.000,"cc",28315.049,6.00,6,0.100,109542.000,0.200,11793.000,0.300,812.000,0.500,309.000,1.000,122.000,5.000,0
"03/08/08","14:03:02",85220.000,"cc",28324.818,6.00,6,0.100,76159.000,0.200,8050.000,0.300,609.000,0.500,313.000,1.000,89.000,5.000,0
"03/08/08","14:03:08",97803.000,"cc",28280.531,6.00,6,0.100,87522.000,0.200,9191.000,0.300,693.000,0.500,290.000,1.000,107.000,5.000,0
"03/08/08","14:03:14",83817.000,"cc",28323.451,6.00,6,0.100,74781.000,0.200,8065.000,0.300,596.000,0.500,257.000,1.000,118.000,5.000,0
"03/08/08","14:03:20",110128.000,"cc",28343.106,6.00,6,0.100,98703.000,0.200,10415.000,0.300,640.000,0.500,271.000,1.000,99.000,5.000,0
"03/08/08","14:03:26",91324.000,"cc",28296.811,6.00,6,0.100,82113.000,0.200,8353.000,0.300,509.000,0.500,243.000,1.000,106.000,5.000,0
"03/08/08","14:03:32",121447.000,"cc",28322.320,6.00,6,0.100,108961.000,0.200,11401.000,0.300,671.000,0.500,290.000,1.000,124.000,5.000,0
"03/08/08","14:03:38",137704.000,"cc",28334.225,6.00,6,0.100,124219.000,0.200,12419.000,0.300,672.000,0.500,292.000,1.000,102.000,5.000,0
"03/08/08","14:03:44",161818.000,"cc",28224.254,6.00,6,0.100,145362.000,0.200,15262.000,0.300,793.000,0.500,299.000,1.000,102.000,5.000,0
"03/08/08","14:03:50",121880.000,"cc",28349.041,6.00,6,0.100,109805.000,0.200,11114.000,0.300,596.000,0.500,254.000,1.000,111.000,5.000,0
"03/08/08","14:03:56",138527.000,"cc",28346.949,6.00,6,0.100,124583.000,0.200,12874.000,0.300,692.000,0.500,265.000,1.000,113.000,5.000,0
"03/08/08","14:04:02",219543.000,"cc",28338.012,6.00,6,0.100,196844.000,0.200,21302.000,0.300,961.000,0.500,327.000,1.000,109.000,5.000,0
"03/08/08","14:04:08",139171.000,"cc",28252.059,6.00,6,0.100,125399.000,0.200,12716.000,0.300,651.000,0.500,288.000,1.000,117.000,5.000,0
"03/08/08","14:04:14",88053.000,"cc",28351.432,6.00,6,0.100,79238.000,0.200,7967.000,0.300,480.000,0.500,283.000,1.000,85.000,5.000,0
"03/08/08","14:04:20",82777.000,"cc",28301.990,6.00,6,0.100,74581.000,0.200,7363.000,0.300,462.000,0.500,254.000,1.000,117.000,5.000,0
"03/08/08","14:04:26",63530.000,"cc",28322.398,6.00,6,0.100,57044.000,0.200,5709.000,0.300,382.000,0.500,261.000,1.000,134.000,5.000,0
"03/08/08","14:04:32",124129.000,"cc",28340.961,6.00,6,0.100,112209.000,0.200,10925.000,0.300,580.000,0.500,274.000,1.000,141.000,5.000,0
"03/08/08","14:04:38",90753.000,"cc",28308.086,6.00,6,0.100,82036.000,0.200,7924.000,0.300,442.000,0.500,256.000,1.000,95.000,5.000,0
"03/08/08","14:04:44",79365.000,"cc",28320.473,6.00,6,0.100,71589.000,0.200,6999.000,0.300,438.000,0.500,242.000,1.000,97.000,5.000,0
"03/08/08","14:04:50",91459.000,"cc",28281.967,6.00,6,0.100,82514.000,0.200,8094.000,0.300,463.000,0.500,260.000,1.000,128.000,5.000,0
"03/08/08","14:04:56",81014.000,"cc",28278.014,6.00,6,0.100,73124.000,0.200,7097.000,0.300,416.000,0.500,265.000,1.000,112.000,5.000,0
"03/08/08","14:05:02",75761.000,"cc",28371.365,6.00,6,0.100,68246.000,0.200,6699.000,0.300,427.000,0.500,263.000,1.000,126.000,5.000,0
"03/08/08","14:05:08",88775.000,"cc",28302.420,6.00,6,0.100,79997.000,0.200,7849.000,0.300,467.000,0.500,344.000,1.000,118.000,5.000,0
"03/08/08","14:05:14",67413.000,"cc",28280.760,6.00,6,0.100,60623.000,0.200,5971.000,0.300,427.000,0.500,284.000,1.000,108.000,5.000,0
"03/08/08","14:05:20",37421.000,"cc",28361.918,6.00,6,0.100,33118.000,0.200,3562.000,0.300,362.000,0.500,265.000,1.000,114.000,5.000,0
"03/08/08","14:05:26",71935.000,"cc",28369.322,6.00,6,0.100,64444.000,0.200,6510.000,0.300,523.000,0.500,333.000,1.000,125.000,5.000,0
"03/08/08","14:05:32",88213.000,"cc",28354.359,6.00,6,0.100,79448.000,0.200,7795.000,0.300,532.000,0.500,307.000,1.000,131.000,5.000,0
"03/08/08","14:05:38",107076.000,"cc",28278.246,6.00,6,0.100,96650.000,0.200,9368.000,0.300,575.000,0.500,351.000,1.000,132.000,5.000,0
"03/08/08","14:05:44",112159.000,"cc",28329.100,6.00,6,0.100,100933.000,0.200,9996.000,0.300,716.000,0.500,383.000,1.000,131.000,5.000,0
"03/08/08","14:05:50",107732.000,"cc",28238.504,6.00,6,0.100,97141.000,0.200,9577.000,0.300,591.000,0.500,299.000,1.000,124.000,5.000,0
"03/08/08","14:05:56",122305.000,"cc",28299.623,6.00,6,0.100,110430.000,0.200,10901.000,0.300,567.000,0.500,282.000,1.000,125.000,5.000,0
"03/08/08","14:06:02",152065.000,"cc",28338.990,6.00,6,0.100,137365.000,0.200,13619.000,0.300,651.000,0.500,312.000,1.000,118.000,5.000,0
"03/08/08","14:06:08",157935.000,"cc",28342.154,6.00,6,0.100,142778.000,0.200,14035.000,0.300,701.000,0.500,288.000,1.000,133.000,5.000,0
"03/08/08","14:06:14",99020.000,"cc",28290.229,6.00,6,0.100,89393.000,0.200,8744.000,0.300,477.000,0.500,287.000,1.000,119.000,5.000,0
"03/08/08","14:06:20",81691.000,"cc",28318.131,6.00,6,0.100,73754.000,0.200,7096.000,0.300,472.000,0.500,256.000,1.000,113.000,5.000,0
"03/08/08","14:06:26",71330.000,"cc",28247.758,6.00,6,0.100,64288.000,0.200,6234.000,0.300,414.000,0.500,283.000,1.000,111.000,5.000,0
"03/08/08","14:06:32",110034.000,"cc",28355.619,6.00,6,0.100,99166.000,0.200,9795.000,0.300,561.000,0.500,369.000,1.000,143.000,5.000,0
"03/08/08","14:06:38",103666.000,"cc",28303.375,6.00,6,0.100,93576.000,0.200,9097.000,0.300,547.000,0.500,333.000,1.000,113.000,5.000,0
"03/08/08","14:06:44",118688.000,"cc",28326.356,6.00,6,0.100,106911.000,0.200,10560.000,0.300,714.000,0.500,364.000,1.000,139.000,5.000,0
"03/08/08","14:06:50",108889.000,"cc",28329.252,6.00,6,0.100,97972.000,0.200,9779.000,0.300,632.000,0.500,359.000,1.000,147.000,5.000,0
"03/08/08","14:06:56",73145.000,"cc",28324.332,6.00,6,0.100,65974.000,0.200,6386.000,0.300,393.000,0.500,269.000,1.000,123.000,5.000,0
"03/08/08","14:07:02",95227.000,"cc",28329.174,6.00,6,0.100,85943.000,0.200,8378.000,0.300,494.000,0.500,308.000,1.000,104.000,5.000,0
"03/08/08","14:07:08",84539.000,"cc",28327.051,6.00,6,0.100,75802.000,0.200,7676.000,0.300,537.000,0.500,366.000,1.000,158.000,5.000,0
"03/08/08","14:07:14",86561.000,"cc",28336.221,6.00,6,0.100,77922.000,0.200,7664.000,0.300,515.000,0.500,317.000,1.000,143.000,5.000,0
"03/08/08","14:07:20",87011.000,"cc",28275.951,6.00,6,0.100,78324.000,0.200,7674.000,0.300,524.000,0.500,358.000,1.000,131.000,5.000,0
"03/08/08","14:07:26",59255.000,"cc",28233.539,6.00,6,0.100,53048.000,0.200,5343.000,0.300,421.000,0.500,333.000,1.000,110.000,5.000,0
"03/08/08","14:07:32",109625.000,"cc",28333.496,6.00,6,0.100,97794.000,0.200,10255.000,0.300,937.000,0.500,467.000,1.000,172.000,5.000,0
"03/08/08","14:07:38",100132.000,"cc",28339.988,6.00,6,0.100,89577.000,0.200,9166.000,0.300,840.000,0.500,411.000,1.000,138.000,5.000,0
"03/08/08","14:07:44",99611.000,"cc",28365.621,6.00,6,0.100,89121.000,0.200,9172.000,0.300,771.000,0.500,390.000,1.000,157.000,5.000,0
"03/08/08","14:07:50",63366.000,"cc",28305.854,6.00,6,0.100,56645.000,0.200,5822.000,0.300,495.000,0.500,292.000,1.000,112.000,5.000,0
"03/08/08","14:07:56",97218.000,"cc",28305.760,6.00,6,0.100,87453.000,0.200,8575.000,0.300,702.000,0.500,355.000,1.000,132.000,5.000,1.000
"03/08/08","14:08:02",107252.000,"cc",28311.705,6.00,6,0.100,96347.000,0.200,9671.000,0.300,723.000,0.500,373.000,1.000,138.000,5.000,0
"03/08/08","14:08:08",101374.000,"cc",28265.506,6.00,6,0.100,91074.000,0.200,9099.000,0.300,709.000,0.500,364.000,1.000,128.000,5.000,0
"03/08/08","14:08:14",78906.000,"cc",28302.145,6.00,6,0.100,70601.000,0.200,7115.000,0.300,645.000,0.500,386.000,1.000,159.000,5.000,0
"03/08/08","14:08:20",106037.000,"cc",28322.650,6.00,6,0.100,94777.000,0.200,9683.000,0.300,897.000,0.500,503.000,1.000,177.000,5.000,0
"03/08/08","14:08:26",100865.000,"cc",28285.467,6.00,6,0.100,90362.000,0.200,9248.000,0.300,737.000,0.500,371.000,1.000,147.000,5.000,0
"03/08/08","14:08:32",87922.000,"cc",28318.404,6.00,6,0.100,78475.000,0.200,8099.000,0.300,734.000,0.500,467.000,1.000,147.000,5.000,0
"03/08/08","14:08:38",110887.000,"cc",28323.836,6.00,6,0.100,99200.000,0.200,10349.000,0.300,758.000,0.500,417.000,1.000,163.000,5.000,0
"03/08/08","14:08:44",91222.000,"cc",28325.332,6.00,6,0.100,81526.000,0.200,8540.000,0.300,659.000,0.500,369.000,1.000,128.000,5.000,0
"03/08/08","14:08:50",191589.000,"cc",28342.486,6.00,6,0.100,170448.000,0.200,19001.000,0.300,1429.000,0.500,527.000,1.000,184.000,5.000,0
"03/08/08","14:08:56",130257.000,"cc",28290.098,6.00,6,0.100,116940.000,0.200,11937.000,0.300,850.000,0.500,393.000,1.000,137.000,5.000,0
"03/08/08","14:09:02",190909.000,"cc",28358.268,6.00,6,0.100,170932.000,0.200,18183.000,0.300,1179.000,0.500,458.000,1.000,157.000,5.000,0
"03/08/08","14:09:08",182643.000,"cc",28337.613,6.00,6,0.100,163165.000,0.200,17829.000,0.300,1080.000,0.500,413.000,1.000,156.000,5.000,0
"03/08/08","14:09:14",126997.000,"cc",28285.766,6.00,6,0.100,113725.000,0.200,11761.000,0.300,896.000,0.500,455.000,1.000,160.000,5.000,0
"03/08/08","14:09:20",129423.000,"cc",28311.934,6.00,6,0.100,115918.000,0.200,12061.000,0.300,875.000,0.500,406.000,1.000,163.000,5.000,0
"03/08/08","14:09:26",127762.000,"cc",28325.846,6.00,6,0.100,114436.000,0.200,11904.000,0.300,828.000,0.500,429.000,1.000,165.000,5.000,0
"03/08/08","14:09:32",142514.000,"cc",28353.070,6.00,6,0.100,127639.000,0.200,13399.000,0.300,893.000,0.500,427.000,1.000,156.000,5.000,0
"03/08/08","14:09:38",97393.000,"cc",28282.523,6.00,6,0.100,87244.000,0.200,9058.000,0.300,612.000,0.500,345.000,1.000,134.000,5.000,0
"03/08/08","14:09:44",69720.000,"cc",28321.674,6.00,6,0.100,62359.000,0.200,6324.000,0.300,549.000,0.500,346.000,1.000,142.000,5.000,0
"03/08/08","14:09:50",80849.000,"cc",28312.344,6.00,6,0.100,71616.000,0.200,7922.000,0.300,714.000,0.500,424.000,1.000,173.000,5.000,0
"03/08/08","14:09:56",71053.000,"cc",28292.285,6.00,6,0.100,62941.000,0.200,6833.000,0.300,676.000,0.500,444.000,1.000,159.000,5.000,0
"03/08/08","14:10:02",66229.000,"cc",28284.568,6.00,6,0.100,58271.000,0.200,6522.000,0.300,729.000,0.500,523.000,1.000,184.000,5.000,0
"03/08/08","14:10:08",58866.000,"cc",28393.201,6.00,6,0.100,51905.000,0.200,5688.000,0.300,635.000,0.500,466.000,1.000,172.000,5.000,0
"03/08/08","14:10:14",96900.000,"cc",28321.352,6.00,6,0.100,85940.000,0.200,9589.000,0.300,774.000,0.500,448.000,1.000,149.000,5.000,0
"03/08/08","14:10:20",139117.000,"cc",28267.828,6.00,6,0.100,123779.000,0.200,13799.000,0.300,964.000,0.500,412.000,1.000,163.000,5.000,0
"03/08/08","14:10:26",150091.000,"cc",28315.115,6.00,6,0.100,133478.000,0.200,14999.000,0.300,1038.000,0.500,427.000,1.000,149.000,5.000,0
"03/08/08","14:10:32",150489.000,"cc",28314.926,6.00,6,0.100,133378.000,0.200,15522.000,0.300,1063.000,0.500,389.000,1.000,137.000,5.000,0
"03/08/08","14:10:38",105501.000,"cc",28276.336,6.00,6,0.100,93675.000,0.200,10386.000,0.300,897.000,0.500,417.000,1.000,126.000,5.000,0
"03/08/08","14:10:44",69373.000,"cc",28372.803,6.00,6,0.100,61377.000,0.200,6810.000,0.300,671.000,0.500,377.000,1.000,138.000,5.000,0
"03/08/08","14:10:50",103314.000,"cc",28326.625,6.00,6,0.100,91174.000,0.200,10387.000,0.300,999.000,0.500,556.000,1.000,198.000,5.000,0
"03/08/08","14:10:56",161889.000,"cc",28287.664,6.00,6,0.100,142703.000,0.200,16958.000,0.300,1406.000,0.500,611.000,1.000,211.000,5.000,0
"03/08/08","14:11:02",197834.000,"cc",28348.066,6.00,6,0.100,174277.000,0.200,21091.000,0.300,1626.000,0.500,610.000,1.000,230.000,5.000,0
"03/08/08","14:11:08",244959.000,"cc",28326.834,6.00,6,0.100,214252.000,0.200,27791.000,0.300,1913.000,0.500,753.000,1.000,250.000,5.000,0
"03/08/08","14:11:14",262242.000,"cc",28315.016,6.00,6,0.100,229583.000,0.200,29417.000,0.300,2258.000,0.500,755.000,1.000,229.000,5.000,0
"03/08/08","14:11:20",233507.000,"cc",28344.940,6.00,6,0.100,203923.000,0.200,26464.000,0.300,2112.000,0.500,761.000,1.000,247.000,5.000,0
"03/08/08","14:11:26",212360.000,"cc",28300.258,6.00,6,0.100,186061.000,0.200,23681.000,0.300,1768.000,0.500,634.000,1.000,216.000,5.000,0
"03/08/08","14:11:32",202963.000,"cc",28259.344,6.00,6,0.100,178659.000,0.200,21849.000,0.300,1609.000,0.500,618.000,1.000,228.000,5.000,0
"03/08/08","14:11:38",199442.000,"cc",28286.676,6.00,6,0.100,175767.000,0.200,21449.000,0.300,1533.000,0.500,511.000,1.000,182.000,5.000,0
"03/08/08","14:11:44",225177.000,"cc",28285.438,6.00,6,0.100,198742.000,0.200,24328.000,0.300,1482.000,0.500,473.000,1.000,152.000,5.000,0
"03/08/08","14:11:50",189901.000,"cc",28317.234,6.00,6,0.100,167658.000,0.200,20206.000,0.300,1321.000,0.500,545.000,1.000,171.000,5.000,0
"03/08/08","14:11:56",230290.000,"cc",28449.107,6.00,6,0.100,202552.000,0.200,25237.000,0.300,1698.000,0.500,618.000,1.000,185.000,5.000,0
"03/08/08","14:12:02",167387.000,"cc",28272.729,6.00,6,0.100,147432.000,0.200,18009.000,0.300,1277.000,0.500,500.000,1.000,169.000,5.000,0
"03/08/08","14:12:08",168248.000,"cc",28290.848,6.00,6,0.100,146816.000,0.200,19068.000,0.300,1528.000,0.500,632.000,1.000,204.000,5.000,0
"03/08/08","14:12:14",151117.000,"cc",28374.316,6.00,6,0.100,133269.000,0.200,15819.000,0.300,1333.000,0.500,504.000,1.000,192.000,5.000,0
"03/08/08","14:12:20",188097.000,"cc",28299.588,6.00,6,0.100,165737.000,0.200,20067.000,0.300,1465.000,0.500,610.000,1.000,218.000,5.000,0
"03/08/08","14:12:26",193054.000,"cc",28306.004,6.00,6,0.100,169680.000,0.200,20810.000,0.300,1665.000,0.500,658.000,1.000,241.000,5.000,0
"03/08/08","14:12:32",185144.000,"cc",28373.486,6.00,6,0.100,162355.000,0.200,20310.000,0.300,1533.000,0.500,698.000,1.000,248.000,5.000,0
"03/08/08","14:12:38",160621.000,"cc",28247.367,6.00,6,0.100,140426.000,0.200,17406.000,0.300,1674.000,0.500,814.000,1.000,301.000,5.000,0
"03/08/08","14:12:44",112595.000,"cc",28314.041,6.00,6,0.100,99261.000,0.200,12023.000,0.300,780.000,0.500,386.000,1.000,145.000,5.000,0
"03/08/08","14:12:50",277932.000,"cc",28305.277,6.00,6,0.100,242706.000,0.200,32433.000,0.300,2054.000,0.500,553.000,1.000,186.000,5.000,0
"03/08/08","14:12:56",225826.000,"cc",28331.674,6.00,6,0.100,198503.000,0.200,25087.000,0.300,1514.000,0.500,528.000,1.000,194.000,5.000,0
"03/08/08","14:13:02",211294.000,"cc",28308.926,6.00,6,0.100,186055.000,0.200,23176.000,0.300,1399.000,0.500,489.000,1.000,175.000,5.000,0
"03/08/08","14:13:08",161629.000,"cc",28355.883,6.00,6,0.100,141914.000,0.200,17470.000,0.300,1367.000,0.500,663.000,1.000,215.000,5.000,0
"03/08/08","14:13:14",118753.000,"cc",28331.773,6.00,6,0.100,104451.000,0.200,12689.000,0.300,982.000,0.500,467.000,1.000,164.000,5.000,0
"03/08/08","14:13:20",132927.000,"cc",28335.699,6.00,6,0.100,116791.000,0.200,14060.000,0.300,1228.000,0.500,613.000,1.000,235.000,5.000,0
"03/08/08","14:13:26",189794.000,"cc",28320.172,6.00,6,0.100,166473.000,0.200,20831.000,0.300,1562.000,0.500,660.000,1.000,268.000,5.000,0
"03/08/08","14:13:32",161174.000,"cc",28268.426,6.00,6,0.100,141839.000,0.200,17288.000,0.300,1257.000,0.500,570.000,1.000,220.000,5.000,0
"03/08/08","14:13:38",147441.000,"cc",28248.467,6.00,6,0.100,129869.000,0.200,15816.000,0.300,1085.000,0.500,495.000,1.000,176.000,5.000,0
"03/08/08","14:13:44",210442.000,"cc",28393.443,6.00,6,0.100,184236.000,0.200,23762.000,0.300,1592.000,0.500,638.000,1.000,214.000,5.000,0
"03/08/08","14:13:50",206009.000,"cc",28356.080,6.00,6,0.100,180896.000,0.200,22733.000,0.300,1531.000,0.500,632.000,1.000,217.000,5.000,0
"03/08/08","14:13:56",259156.000,"cc",28353.912,6.00,6,0.100,226490.000,0.200,29846.000,0.300,1873.000,0.500,701.000,1.000,246.000,5.000,0
"03/08/08","14:14:02",230626.000,"cc",28307.742,6.00,6,0.100,202330.000,0.200,25721.000,0.300,1649.000,0.500,676.000,1.000,250.000,5.000,0
"03/08/08","14:14:08",194051.000,"cc",28309.311,6.00,6,0.100,170367.000,0.200,21455.000,0.300,1389.000,0.500,601.000,1.000,239.000,5.000,0
"03/08/08","14:14:14",109047.000,"cc",28297.106,6.00,6,0.100,96054.000,0.200,11320.000,0.300,928.000,0.500,535.000,1.000,210.000,5.000,0
"03/08/08","14:14:20",130046.000,"cc",28292.596,6.00,6,0.100,114197.000,0.200,13887.000,0.300,1075.000,0.500,639.000,1.000,248.000,5.000,0
"03/08/08","14:14:26",127285.000,"cc",28325.293,6.00,6,0.100,112233.000,0.200,13399.000,0.300,987.000,0.500,483.000,1.000,183.000,5.000,0
"03/08/08","14:14:32",185329.000,"cc",28345.162,6.00,6,0.100,163435.000,0.200,19828.000,0.300,1285.000,0.500,574.000,1.000,207.000,5.000,0
"03/08/08","14:14:38",137490.000,"cc",28328.191,6.00,6,0.100,120285.000,0.200,15442.000,0.300,1087.000,0.500,493.000,1.000,183.000,5.000,0
"03/08/08","14:14:44",182275.000,"cc",28367.232,6.00,6,0.100,160422.000,0.200,19815.000,0.300,1297.000,0.500,526.000,1.000,215.000,5.000,0
"03/08/08","14:14:50",116207.000,"cc",28246.410,6.00,6,0.100,102532.000,0.200,12164.000,0.300,885.000,0.500,438.000,1.000,188.000,5.000,0
"03/08/08","14:14:56",117934.000,"cc",28299.467,6.00,6,0.100,104196.000,0.200,12355.000,0.300,791.000,0.500,447.000,1.000,145.000,5.000,0
"03/08/08","14:15:02",229801.000,"cc",28297.988,6.00,6,0.100,201922.000,0.200,25724.000,0.300,1442.000,0.500,533.000,1.000,180.000,5.000,0
"03/08/08","14:15:08",215605.000,"cc",28325.986,6.00,6,0.100,189964.000,0.200,23509.000,0.300,1370.000,0.500,553.000,1.000,209.000,5.000,0
"03/08/08","14:15:14",156197.000,"cc",28386.352,6.00,6,0.100,138321.000,0.200,16268.000,0.300,1012.000,0.500,438.000,1.000,158.000,5.000,0
"03/08/08","14:15:20",156954.000,"cc",28361.697,6.00,6,0.100,138619.000,0.200,16574.000,0.300,1084.000,0.500,484.000,1.000,193.000,5.000,0
"03/08/08","14:15:26",112603.000,"cc",28245.631,6.00,6,0.100,99708.000,0.200,11545.000,0.300,772.000,0.500,408.000,1.000,170.000,5.000,0
"03/08/08","14:15:32",162973.000,"cc",28316.393,6.00,6,0.100,144620.000,0.200,16636.000,0.300,1033.000,0.500,499.000,1.000,185.000,5.000,0
"03/08/08","14:15:38",151692.000,"cc",28315.020,6.00,6,0.100,134173.000,0.200,15773.000,0.300,1039.000,0.500,502.000,1.000,205.000,5.000,0
"03/08/08","14:15:44",371528.000,"cc",28285.932,6.00,6,0.100,320439.000,0.200,47674.000,0.300,2532.000,0.500,661.000,1.000,222.000,5.000,0
"03/08/08","14:15:50",270344.000,"cc",28313.065,6.00,6,0.100,236735.000,0.200,31530.000,0.300,1501.000,0.500,408.000,1.000,170.000,5.000,0
"03/08/08","14:15:56",228566.000,"cc",28364.070,6.00,6,0.100,201839.000,0.200,24981.000,0.300,1228.000,0.500,357.000,1.000,161.000,5.000,0
"03/08/08","14:16:02",140403.000,"cc",28327.432,6.00,6,0.100,124969.000,0.200,14118.000,0.300,816.000,0.500,359.000,1.000,141.000,5.000,0
"03/08/08","14:16:08",157879.000,"cc",28290.293,6.00,6,0.100,140191.000,0.200,16135.000,0.300,941.000,0.500,449.000,1.000,163.000,5.000,0
"03/08/08","14:16:14",136253.000,"cc",28329.766,6.00,6,0.100,121006.000,0.200,13751.000,0.300,880.000,0.500,425.000,1.000,191.000,5.000,0
"03/08/08","14:16:20",148416.000,"cc",28341.559,6.00,6,0.100,131182.000,0.200,15258.000,0.300,1122.000,0.500,614.000,1.000,240.000,5.000,0